Location: Newark
(51.2375°N, 2.9933°W)
Time: 18:40:31
(UTC+00:00)

ISS - Visible Passes

Search period start: 22 September 2020 00:00
Search period end: 02 October 2020 00:00
Orbit: 419 x 420 km, 51.6° (Epoch: 23 September)

Date Brightness Start Highest point End Pass type
(mag) Time Alt. Az. Time Alt. Az. Time Alt. Az.
22 Sep -3.8 19:41:22 10° WSW 19:44:43 72° SSE 19:45:57 36° E visible
22 Sep -0.9 21:18:11 10° W 21:18:55 16° W 21:18:55 16° W visible
23 Sep -3.6 18:54:03 10° WSW 18:57:22 57° SSE 19:00:25 12° E visible
23 Sep -2.9 20:30:46 10° W 20:33:23 50° W 20:33:23 50° W visible
24 Sep -3.8 19:43:21 10° W 19:46:44 85° N 19:47:47 41° E visible
24 Sep -0.7 21:20:13 10° W 21:20:45 14° W 21:20:45 14° W visible
25 Sep -3.8 18:55:56 10° WSW 18:59:19 86° S 19:02:09 14° E visible
25 Sep -2.5 20:32:48 10° W 20:35:07 41° W 20:35:07 41° W visible
26 Sep -3.8 19:45:22 10° W 19:48:45 83° N 19:49:27 53° E visible
26 Sep -0.4 21:22:13 10° W 21:22:24 11° W 21:22:24 11° W visible
27 Sep -3.7 18:57:55 10° W 19:01:17 81° N 19:03:47 17° E visible
27 Sep -2.0 20:34:45 10° W 20:36:44 32° W 20:36:44 32° W visible
28 Sep -3.9 19:47:18 10° W 19:50:41 79° SSW 19:51:03 67° SE visible
29 Sep -3.8 18:59:50 10° W 19:03:14 89° N 19:05:23 21° E visible
29 Sep -1.5 20:36:44 10° W 20:38:20 23° W 20:38:20 23° W visible
30 Sep -3.3 19:49:13 10° W 19:52:30 49° SSW 19:52:41 48° SSW visible
01 Oct -3.5 19:01:43 10° W 19:05:04 64° SSW 19:07:03 22° ESE visible
01 Oct -1.0 20:39:01 10° W 20:40:01 15° WSW 20:40:01 15° WSW visible
